TITAN 3C TRANSTAGE DEB, 26530

Orbit data source: Space-Track

TITAN 3C TRANSTAGE DEB, 26530 is space debris in HEO originally from a launch on Tue, 21 Dec 1965 UTC launched from the Air Force Eastern Test Range (AFETR). Debris objects in space refer to the collection of defunct objects orbiting the Earth. Examples of debris include non-operational satellites, rocket bodies, and fragments generated from explosions, collisions, or faulty payload assembly.

Loading next visibility...
Identifier
26530, 1965-108AR
Orbit
HEO
Country
Flag of USUS
Related business
Manufacturer
Unknown
Mission
Spacecraft
Bus & Motor
Unknown
Mass
Unknown
Launch date (UTC)
1965-12-21 (60 years ago)
Launch vehicle
Unknown
Launch site
Air Force Eastern Test Range (AFETR)
Object type
Payload
Rocket body
Debris
Shape & HBR
Unknown shape, 0.3 m
Radar Cross Section
Medium (>0.1 m² and <1 m²)

Expand to show TLE details & history
Last TLE update: 3 days ago

TLE from 3 days ago
0 TITAN 3C TRANSTAGE DEB
1 26530U 65108AR  25286.42895918 -.00000042  00000-0  86114-3 0  9995
2 26530  26.9039 213.2153 6733818 139.2227 298.2067  2.82853545269593
Epoch: 2025-10-13T10:17Z
TLE epoch observation values (Epoch: 2025-10-13T10:17:42.073Z)
Latitude
0.00005°
Longitude
36.49969°
Altitude
17,186.787 km
Speed
3.867 km/s
True Right ascension
14h 12m 37s
True Declination
0° 00' 00"
Sunlit
Object was in daylight at epoch
Visualization orbit readout
Latitude
Unknown
Longitude
Unknown
Altitude
Unknown
Speed
Unknown
Apparent Right ascension
Unknown
Apparent Declination
Unknown
Sunlit
N/A
Visualization observer readout
Local Sidereal Time
16:01:45
Azimuth
Unknown
Elevation
Unknown
Doppler factor
Unknown
Orbital elements
Apogee altitude
28,969.707 km
Perigee altitude
521.214 km
Semi-major axis
21,123.598 km
Eccentricity
0.67338
Inclination
26.9039°
RAAN
213.2153°
Arg. of periapsis
139.2227°
True anomaly
220.80589°
Mean anomaly
298.2067°
Eccentric anomaly
260.18902°
Mean motion
0.70695 °/min
Orbital period
509.23 mins
BSTAR
0.00086114
Loading maneuver chart data...
Computing Atmospheric mass density...

Documentation

Showing up to 5 results
|